STARLINK-3861, 52503

Orbit data source: Space-Track

STARLINK-3861, 52503 is a payload satellite owned by SpaceX/Seattle (US) in LEO that was launched on Fri, 06 May 2022 UTC via an FALCON 9 launch vehicle from the Air Force Eastern Test Range (AFETR). Payload-class satellites include a variety of spacecraft equipped with specific instruments for various scientific and technological missions. These include communications satellites like Starlink; space stations such as the ISS; scientific satellites like the Hubble; Earth observation satellites from companies like Planet Labs, Umbra, and HawkEye 360; GPS; miniature CubeSats for education and research; and military/defense satellites.

Loading next visibility...
Identifier
52503, 2022-049BE
Orbit
LEO
Country
Flag of USUS
Related business
Manufacturer
SpaceX/Seattle
Mission
Operational Commercial Communications
Bus & Motor
STARLINK, Unknown motor
Mass
297 kg wet, ~220 kg dry
Launch date (UTC)
2022-05-06 (4 years ago)
Launch vehicle
FALCON 9
Launch site
Air Force Eastern Test Range (AFETR)
Object type
Payload
Rocket body
Debris
Shape & HBR
Box + 1 Pan, 10.1 m
Radar Cross Section
13.562 m², Large (>1 m²)

Expand to show TLE details & history
Last TLE update: 1 day ago

TLE from 1 day ago
0 STARLINK-3861
1 52503U 22049BE  26206.08921885  .00000021  00000-0  19430-4 0  9993
2 52503  53.1603 141.8686 0001309  92.4610 267.6531 15.08839065233276
Epoch: 2026-07-25T02:08Z
TLE epoch observation values (Epoch: 2026-07-25T02:08:28.508Z)
Latitude
-0.00005°
Longitude
166.94327°
Altitude
540.675 km
Speed
7.593 km/s
True Right ascension
09h 27m 28s
True Declination
0° 00' 00"
Sunlit
Object was in daylight at epoch
Visualization orbit readout
Latitude
Unknown
Longitude
Unknown
Altitude
Unknown
Speed
Unknown
Apparent Right ascension
Unknown
Apparent Declination
Unknown
Sunlit
N/A
Visualization observer readout
Local Sidereal Time
19:21:35
Azimuth
Unknown
Elevation
Unknown
Doppler factor
Unknown
Orbital elements
Apogee altitude
540.906 km
Perigee altitude
539.095 km
Semi-major axis
6,918.137 km
Eccentricity
0.00013
Inclination
53.1603°
RAAN
141.8686°
Arg. of periapsis
92.461°
True anomaly
267.63811°
Mean anomaly
267.6531°
Eccentric anomaly
267.64561°
Mean motion
3.77189 °/min
Orbital period
95.44 mins
BSTAR
0.00001943
Loading maneuver chart data...
Computing Atmospheric mass density...
Loading historical data...
Loading historical data...
Loading historical data...
Loading historical data...
Loading historical data...
Loading historical data...
Loading historical data...

Documentation

Showing up to 5 results
|